Location: Poughquag
(41.6090°N, 73.6820°W)
Time: 20:41:29
(UTC-04:00)

STARLINK-1364 - Pass Details

Date: 29 May 2020
Orbit: 379 x 380 km, 53.0° (Epoch: 04 July)

Event Time Altitude Azimuth Distance (km) Brightness Sun altitude
Exits shadow 03:09:58 16° 303° (WNW) 1,090 5.1 -19.1°
Maximum altitude 03:11:18 21° 337° (NNW) 935 5.1 -19.0°
Drops below altitude 10° 03:13:45 10° 28° (NNE) 1,406 7.0 -18.7°
Sets 03:16:08 0° 46° (NE) 2,257 8.3 -18.5°
